Location: *
(60.1759°S, 155.0663°W)
Time: 04:36:02
(UTC+00:00)

Cosmos 2242 Rocket - Pass Details

Date: 17 September 2019
Orbit: 618 x 652 km, 82.5° (Epoch: 20 October)

Event Time Altitude Azimuth Distance (km) Brightness Sun altitude
Rises 13:03:07 0° 194° (SSW) 3,000 7.5 -23.8°
Reaches altitude 10° 13:05:25 10° 191° (S) 2,088 6.6 -23.5°
Maximum altitude 13:10:03 68° 108° (ESE) 718 4.0 -23.1°
Enters shadow 13:13:07 21° 28° (NNE) 1,481 5.3 -22.8°
